OPS 4682 DEB, 38460

Orbit data source: Space-Track

OPS 4682 DEB, 38460 is space debris in LEO originally from a launch on Sat, 03 Apr 1965 UTC launched from the Air Force Western Test Range (AFWTR). Debris objects in space refer to the collection of defunct objects orbiting the Earth. Examples of debris include non-operational satellites, rocket bodies, and fragments generated from explosions, collisions, or faulty payload assembly.

Loading next visibility...
Identifier
38460, 1965-027FR
Orbit
LEO
Country
Flag of USUS
Related business
Manufacturer
Unknown
Mission
Spacecraft
Bus & Motor
Unknown
Mass
Unknown
Launch date (UTC)
1965-04-03 (61 years ago)
Launch vehicle
Unknown
Launch site
Air Force Western Test Range (AFWTR)
Object type
Payload
Rocket body
Debris
Shape & HBR
Unknown shape, 0.1 m
Radar Cross Section
Small (<0.1 m²)

Expand to show TLE details & history
Last TLE update: 2 weeks ago

TLE from 2 weeks ago
0 OPS 4682 DEB
1 38460U 65027FR  25283.45864278  .00000137  00000-0  46103-3 0  9993
2 38460  90.2367 357.1730 0032301 148.7367 228.7426 12.95064375723286
Epoch: 2025-10-10T11:00Z
TLE epoch observation values (Epoch: 2025-10-10T11:00:26.736Z)
Latitude
17.1878°
Longitude
172.68456°
Altitude
1,300.134 km
Speed
7.2 km/s
True Right ascension
23h 48m 24s
True Declination
17° 05' 52"
Sunlit
Object was in full shadow at epoch
Visualization orbit readout
Latitude
Unknown
Longitude
Unknown
Altitude
Unknown
Speed
Unknown
Apparent Right ascension
Unknown
Apparent Declination
Unknown
Sunlit
N/A
Visualization observer readout
Local Sidereal Time
18:01:36
Azimuth
Unknown
Elevation
Unknown
Doppler factor
Unknown
Orbital elements
Apogee altitude
1,303.352 km
Perigee altitude
1,253.888 km
Semi-major axis
7,656.757 km
Eccentricity
0.00323
Inclination
90.2367°
RAAN
357.173°
Arg. of periapsis
148.7367°
True anomaly
228.46508°
Mean anomaly
228.7426°
Eccentric anomaly
228.60377°
Mean motion
3.23948 °/min
Orbital period
111.13 mins
BSTAR
0.00046103
Loading maneuver chart data...
Computing Atmospheric mass density...
Loading historical data...
Loading historical data...
Loading historical data...
Loading historical data...
Loading historical data...
Loading historical data...
Loading historical data...

Documentation

Showing up to 5 results
|